Regional Weather Roundup
Issued by NWS

Home | Current Version | Previous Version | Graphics & Text | Print | Product List | Glossary On
Versions: 1 2 3 4 5 6 7 8 9 10 11 12 13 14 15 16 17 18 19 20 21 22 23 24 25 26 27 28 29 30 31 32 33 34 35 36 37 38 39 40 41 42 43 44 45 46 47 48 49 50
000
ASUS43 KOAX 240110
RWRNE

WEATHER ROUNDUP FOR NEBRASKA
NATIONAL WEATHER SERVICE OMAHA NE
800 PM CDT WED MAY 23 2018

NOTES: SATELLITE DATA IS BEING USED TO AUGMENT CLOUD COVER ABOVE
       12000 FEET.
       "FAIR" INDICATES FEW OR NO CLOUDS BELOW 12,000 FEET WITH NO
       SIGNIFICANT WEATHER AND/OR OBSTRUCTIONS TO VISIBILITY.


NEZ001>004-019>022-054>056-240200-
NEBRASKA PANHANDLE

CITY           SKY/WX    TMP DP  RH WIND       PRES   REMARKS
SCOTTSBLUFF    SUNNY     75  57  53 SE6       29.88S
ALLIANCE       PTSUNNY   75  57  53 SE6       29.88S
CHADRON        CLOUDY    69  58  67 NE7       29.89R
GORDON         FAIR      74  59  59 S5        29.87F
KIMBALL        SUNNY     75  47  37 S5        29.94R
SIDNEY         MOSUNNY   75  54  47 CALM      29.91S
$$

NEZ057>060-069>072-079>082-240200-
SOUTHWEST NEBRASKA

CITY           SKY/WX    TMP DP  RH WIND       PRES   REMARKS
NORTH PLATTE   MOCLDY    79  62  56 SE17      29.89F
IMPERIAL       PTSUNNY   80  58  46 SE21G33   29.87S
LEXINGTON      MOCLDY    79  62  56 SE16G22   29.93F
MCCOOK         PTCLDY    82  56  40 S14G22    29.90S
OGALLALA       PTSUNNY   81  54  39 SE10      29.87S
$$

NEZ005>010-023>029-035>040-094-240200-
NORTH CENTRAL NEBRASKA

CITY           SKY/WX    TMP DP  RH WIND       PRES   REMARKS
VALENTINE      PTSUNNY   80  60  50 SE10      29.89S
AINSWORTH      MOCLDY    78  62  58 SE14      29.91S
BROKEN BOW     MOCLDY    78  61  55 SE14G24   29.94S
O`NEILL        MOCLDY    78  60  52 SE7       29.93S
ORD            CLOUDY    76  64  66 SE7       29.93F
THEDFORD       MOCLDY    81  54  39 SE13G18   29.91F
$$

NEZ041-046>049-061>064-073>077-083>087-240200-
SOUTH CENTRAL NEBRASKA

CITY           SKY/WX    TMP DP  RH WIND       PRES   REMARKS
GRAND ISLAND   CLOUDY    81  62  52 S10       29.96F
AURORA         CLOUDY    82  57  42 S8        29.96F
HASTINGS       CLOUDY    82  61  48 S12G20    29.96F
HEBRON         CLOUDY    84  61  45 SE15      29.98R
HOLDREGE       CLOUDY    77  62  60 SE14G20   29.95F
KEARNEY        CLOUDY    76  64  66 S10       29.96F
YORK           CLOUDY    82  61  47 S14G21    29.97S
$$

NEZ011>018-030>034-042>045-240200-
NORTHEAST NEBRASKA

CITY           SKY/WX    TMP DP  RH WIND       PRES   REMARKS
NORFOLK        CLOUDY    79  59  50 W14       29.94R
ALBION         CLOUDY    77  63  61 S6        29.96F
BLAIR          PTCLDY    86  62  43 SE12      29.98S
COLUMBUS       MOCLDY    85  60  42 S12       29.96R
FREMONT        CLEAR     88  57  35 SE10      29.97S
TEKAMAH        PTCLDY    83  64  52 SE15      29.95F
WAYNE          CLOUDY    79  59  49 S8        29.95S
$$

NEZ050>053-065>068-078-088>093-240200-
SOUTHEAST NEBRASKA

CITY           SKY/WX    TMP DP  RH WIND       PRES   REMARKS
LINCOLN        CLEAR     84  61  45 S13       29.98R
OMAHA EPPLEY   PTCLDY    87  59  38 S15       29.97S
BEATRICE       CLEAR     84  62  46 S14G21    30.00R
FALLS CITY     LGT RAIN  86  60  41 S12       30.01R
NEBRASKA CITY  CLEAR     85  61  44 S15G21    30.01R
PLATTSMOUTH    PTCLDY    85  61  44 SE12      30.00R
$$

NEZ044-045-051>053-067-240200-
OMAHA AREA

CITY           SKY/WX    TMP DP  RH WIND       PRES   REMARKS
OMAHA EPPLEY   PTCLDY    87  59  38 S15       29.97S
BLAIR          PTCLDY    86  62  43 SE12      29.98S
FREMONT        CLEAR     88  57  35 SE10      29.97S
MILLARD        CLOUDY    85  65  50 SE8       29.98R
OFFUTT AFB     PTCLDY    84  63  48 SE13      29.97S
PLATTSMOUTH    PTCLDY    85  61  44 SE12      30.00R
WAHOO          FAIR      86  55  33 S17G25    29.97S
$$




USA.gov is the U.S. government's official web portal to all federal, state and local government web resources and services.